Theta_e
310 312 312 312 312 313 314 315 313 312 311 310 309 310 310 310 310 308 309 309 308 309 312 312 313 313 313 316 313 314 331 344 342 342 345 344 343 342 342 343 343 342 341 339 337 335 334 334 334 334 334 335 335 336 336 337 337 338 338 338 337 336 335 334 333 332 332 332 333 333 332 332 333 332 332 332 333 334 335 335 334 335 335 334 334 334
310 313 314 313 314 316 319 318 315 313 311 310 310 311 310 310 310 309 309 309 308 309 312 313 313 314 314 316 314 313 323 338 341 342 342 342 342 340 340 342 342 341 339 337 336 334 333 334 334 334 334 335 336 336 336 337 337 337 337 337 336 336 335 335 334 332 332 332 333 333 332 332 332 332 332 332 333 334 335 335 335 335 334 335 335 334
312 314 314 312 314 318 319 315 313 314 312 310 310 311 312 310 309 310 310 310 309 309 313 314 312 314 316 317 317 315 316 325 336 340 341 341 341 340 339 340 342 341 339 337 335 334 334 333 333 333 334 335 336 335 335 336 337 337 337 336 336 335 335 335 333 332 332 332 332 333 332 332 332 332 332 333 333 334 334 334 334 334 334 334 334 334
313 313 312 311 314 317 316 314 313 313 312 311 311 311 311 310 309 311 312 312 311 311 313 313 313 314 317 320 322 322 321 322 327 333 339 341 340 341 340 339 340 340 340 339 335 333 333 333 333 333 334 335 335 335 335 336 337 336 336 335 335 336 335 334 333 333 333 333 332 332 331 331 332 332 332 333 333 333 333 333 334 333 334 334 334 333
313 310 309 310 313 314 315 314 313 312 311 313 313 311 310 310 310 310 312 312 312 314 314 313 313 314 317 322 325 326 327 326 324 327 332 338 339 340 339 339 339 339 339 339 336 333 333 333 333 333 334 335 335 335 335 336 336 335 336 336 335 335 335 334 334 334 333 332 331 331 331 331 331 332 332 332 332 332 333 333 333 333 333 333 333 332
314 311 309 310 310 310 312 313 312 312 312 313 313 312 311 310 311 311 310 311 311 313 314 313 313 314 316 321 325 329 330 328 328 328 329 334 338 338 337 338 339 338 338 338 336 333 333 333 333 334 335 335 335 335 335 336 335 335 335 335 334 334 334 334 334 334 333 331 331 331 332 332 332 332 332 332 332 332 332 333 333 333 333 332 332 332
312 311 310 312 311 310 310 311 311 312 311 311 314 314 311 310 311 311 310 310 311 313 315 314 313 315 315 316 323 329 331 330 329 330 331 333 336 337 337 338 338 338 338 337 335 333 333 333 334 334 335 335 335 334 335 335 334 335 334 333 334 334 334 334 334 333 332 332 332 333 333 333 333 332 332 332 332 332 333 333 333 333 333 332 332 332
312 311 311 313 313 310 311 312 312 311 310 311 315 315 310 309 311 311 311 311 312 314 315 314 313 315 314 316 325 329 331 332 330 330 332 334 336 338 338 338 338 337 337 336 334 333 332 333 334 334 335 335 334 334 334 334 334 334 334 333 333 334 334 334 333 332 332 332 333 334 334 333 333 333 332 332 332 333 333 333 333 332 332 331 331 331
313 313 313 312 312 311 311 313 312 310 310 312 314 312 309 310 311 310 311 312 313 314 315 314 313 314 313 316 325 328 330 333 331 329 330 332 335 338 338 337 337 337 337 335 334 332 332 333 334 334 335 335 334 334 334 334 334 333 333 333 333 333 334 333 332 331 332 333 334 334 333 333 333 332 332 331 332 332 332 332 332 331 331 330 330 330
311 312 312 310 311 312 312 312 310 310 310 311 311 310 309 311 311 311 312 313 314 315 316 316 314 313 313 314 323 330 331 331 330 329 330 331 333 337 338 336 336 336 335 333 331 332 332 333 334 334 335 335 334 334 334 333 334 333 332 332 332 333 333 332 331 331 333 334 333 333 333 332 331 331 331 331 332 332 332 331 330 330 330 329 328 328
310 309 309 309 311 312 310 310 308 309 310 310 311 311 311 311 312 312 313 313 315 316 315 314 315 315 312 313 323 329 330 328 327 328 330 331 332 336 336 334 335 333 332 332 331 332 332 333 334 334 334 335 334 333 333 333 333 333 332 332 332 333 332 332 331 332 333 333 333 333 333 332 331 331 332 332 332 332 331 330 329 329 328 327 327 326
310 309 309 311 311 309 309 309 307 307 308 309 311 312 312 313 313 313 313 313 315 316 314 311 313 315 311 315 325 329 328 327 327 328 330 331 332 334 335 334 333 332 331 330 330 331 331 332 334 334 334 334 333 333 333 333 333 332 332 332 331 332 332 332 332 332 333 333 332 332 331 331 330 331 332 332 331 331 330 329 328 327 327 326 326 325
311 311 310 310 311 309 309 310 308 307 308 309 311 312 313 314 314 314 314 314 315 315 314 311 312 314 312 318 328 329 329 328 328 327 328 330 331 333 334 333 332 331 330 329 329 331 332 332 333 333 334 334 332 333 333 333 333 332 332 331 331 331 332 332 332 332 333 332 332 331 330 330 329 330 330 330 329 329 328 327 327 326 326 325 324 324
313 313 310 309 310 310 310 311 311 310 309 309 311 312 314 314 314 315 314 314 314 315 314 312 313 315 315 323 329 330 329 329 329 327 327 330 332 332 331 330 330 330 329 328 327 329 331 332 332 331 332 333 332 332 332 332 333 332 331 331 331 330 330 331 331 332 332 332 331 331 330 329 327 327 327 326 326 326 326 325 325 325 324 324 324 323
314 314 312 311 311 310 310 311 312 312 310 310 310 311 313 314 314 314 314 314 314 315 315 314 314 317 321 326 328 328 329 329 330 329 329 331 330 331 330 329 329 329 328 328 327 328 331 331 331 330 330 332 333 332 332 332 332 332 332 331 329 328 328 329 331 332 332 331 330 330 330 327 324 324 324 324 324 325 325 324 324 323 323 323 323 323
312 313 312 311 309 309 310 311 311 311 311 310 309 311 313 314 316 315 314 315 315 315 316 315 316 320 323 324 324 326 329 329 329 330 331 331 329 329 330 329 330 330 330 330 330 330 331 331 330 330 330 331 333 332 332 332 331 332 332 330 328 327 328 330 331 332 332 330 329 330 329 326 324 323 323 324 325 325 325 325 324 323 322 322 322 323
311 313 314 311 309 309 310 310 310 310 312 311 309 312 312 311 316 318 314 313 314 314 315 317 322 324 324 324 324 327 329 328 329 330 331 332 330 330 331 331 332 332 332 332 331 330 331 332 331 331 331 331 333 333 332 332 332 332 331 330 328 328 329 331 331 331 331 330 328 329 329 328 326 325 324 325 325 326 326 326 325 323 322 322 322 321
312 314 315 312 310 310 308 308 309 309 310 311 311 313 311 310 315 317 315 314 314 314 315 320 327 328 326 327 327 327 328 327 329 331 332 332 332 332 332 332 332 331 332 332 331 330 331 332 332 332 331 331 332 333 333 333 332 332 331 330 329 329 330 330 330 330 331 330 328 328 329 329 328 328 326 326 325 325 325 326 326 324 322 321 321 321
311 313 316 313 310 310 308 308 309 309 309 310 312 312 312 313 315 314 315 316 315 315 316 320 324 325 325 327 328 328 328 327 328 331 333 333 332 332 332 332 331 330 331 331 331 330 330 331 332 332 332 332 332 333 332 332 333 332 331 330 330 329 329 329 330 330 330 330 329 328 328 329 328 328 327 325 324 323 323 326 325 323 320 319 320 321
312 314 316 312 309 309 310 312 312 311 310 310 311 311 312 315 315 314 315 316 315 315 316 320 323 323 324 326 326 327 326 326 328 331 332 332 331 330 330 331 330 329 330 331 330 330 329 331 331 332 332 332 332 333 331 331 332 331 332 330 329 328 328 328 329 329 329 329 329 328 327 327 327 326 325 324 323 323 323 324 323 321 319 318 319 320
314 314 315 314 311 311 313 314 314 313 312 312 312 313 314 314 313 314 315 315 315 316 316 318 321 322 323 324 325 326 325 325 327 330 331 330 329 328 328 329 329 328 328 328 329 329 328 330 330 330 331 331 332 332 331 331 331 331 331 330 328 327 328 328 327 327 327 328 328 328 327 326 325 325 324 323 323 323 323 322 321 319 318 318 318 319
315 314 315 317 315 313 314 314 313 313 312 312 313 313 315 315 314 314 315 314 315 316 317 317 317 321 323 324 325 325 324 326 326 328 328 327 326 326 326 326 326 326 326 325 324 325 325 327 327 327 329 329 330 331 331 330 330 330 330 330 329 328 328 329 328 327 326 326 327 327 326 326 325 324 324 323 323 323 322 321 319 319 319 318 318 318
319 318 316 316 314 314 314 311 310 312 311 312 313 313 313 316 316 314 314 316 317 316 316 317 316 322 325 324 325 325 325 326 325 325 326 325 325 326 326 325 324 324 323 323 322 323 324 325 325 326 327 328 328 329 330 329 328 329 330 330 329 329 328 328 328 328 326 325 325 325 325 325 325 324 324 323 323 323 322 320 319 319 319 318 318 317
321 321 317 316 315 314 313 310 309 311 313 316 318 316 315 315 316 315 315 319 319 317 318 318 316 323 326 325 325 325 324 324 322 322 322 322 322 322 321 321 321 320 320 319 319 320 321 322 324 325 326 325 326 326 326 327 327 327 328 329 329 328 328 328 328 328 327 325 325 324 324 324 324 324 324 323 323 323 322 320 319 319 319 318 317 316
319 320 318 317 317 317 317 315 314 314 316 317 318 317 315 314 314 315 317 319 319 318 319 317 318 324 327 326 325 324 321 319 318 317 317 317 317 316 316 316 316 316 316 316 316 315 316 318 320 323 324 324 324 323 323 325 325 325 325 326 326 326 326 327 328 328 326 326 325 324 324 324 324 324 324 323 323 323 322 320 320 319 318 317 316 316
320 322 321 318 318 318 318 318 316 316 317 316 315 315 314 315 316 318 318 317 316 318 318 317 322 327 328 326 324 321 318 317 316 314 313 313 313 313 313 313 313 312 313 314 314 314 315 316 317 319 322 323 323 322 322 323 324 324 324 324 325 325 325 326 327 326 326 326 325 324 323 323 323 323 323 323 323 323 322 320 320 319 317 316 316 316
321 319 318 319 319 317 316 316 313 315 319 319 317 315 314 315 315 316 315 316 317 318 318 321 326 329 330 326 322 319 317 316 315 313 312 312 311 311 311 311 311 311 311 312 313 313 314 314 315 316 319 322 323 323 323 322 322 322 323 323 324 324 324 325 326 325 326 326 325 324 322 322 322 322 321 321 321 320 320 320 319 318 316 316 316 316
323 319 316 318 318 315 315 315 313 314 317 318 317 317 317 316 316 319 319 319 319 318 319 323 326 330 329 323 320 318 316 314 313 312 311 311 311 311 311 311 311 311 311 311 311 312 312 312 313 314 316 319 321 322 322 322 322 321 321 322 323 324 324 325 325 325 325 325 324 322 321 321 320 320 321 322 321 319 319 319 319 318 317 316 317 316
323 319 316 317 317 315 314 314 314 313 313 313 314 317 317 317 319 323 323 318 318 318 322 325 326 326 322 318 317 315 313 312 311 310 310 310 310 310 310 310 310 310 310 309 309 309 309 309 310 311 312 314 316 318 319 320 320 321 320 321 322 323 323 322 323 323 323 322 321 320 320 321 319 319 320 322 321 320 319 319 318 318 317 317 317 316
319 318 317 318 317 317 315 315 314 313 313 313 314 315 317 318 319 320 321 319 319 322 325 324 322 319 316 314 313 311 310 310 309 309 309 309 309 309 309 308 309 309 308 308 307 307 306 307 307 307 308 309 310 312 313 314 315 318 319 320 321 321 321 320 321 321 321 320 320 319 320 320 319 319 320 320 320 319 319 319 318 318 317 317 317 317
317 317 317 319 319 317 316 316 315 314 314 315 314 313 315 317 318 319 319 319 322 324 322 319 318 315 313 311 310 310 309 309 309 309 309 308 308 308 308 308 308 307 307 307 306 305 304 305 305 305 305 306 306 307 308 309 310 313 316 317 319 319 319 320 320 320 320 319 319 319 319 319 319 319 319 319 320 320 319 317 316 317 317 317 317 319
319 316 314 318 319 318 316 316 316 315 315 317 316 314 314 316 318 318 316 316 320 322 321 320 319 315 311 310 310 309 309 309 309 309 308 308 307 307 307 307 306 306 306 306 305 305 303 303 304 304 304 304 304 304 305 306 307 308 310 312 314 316 318 318 318 318 318 318 318 318 318 318 318 319 319 319 319 319 317 314 314 315 315 315 316 318
319 316 315 318 319 318 316 317 317 317 318 320 316 312 313 314 315 316 315 315 317 319 320 321 318 313 310 309 309 308 308 308 307 307 307 307 306 306 306 305 305 305 305 305 304 304 303 303 303 303 302 302 302 303 303 304 304 305 305 307 310 313 314 314 315 315 316 317 317 317 317 318 318 318 318 318 318 318 316 315 315 316 315 315 317 318
317 316 318 319 319 318 317 317 318 319 321 319 312 309 311 313 314 316 315 314 315 314 314 314 312 310 309 309 308 308 307 306 306 305 305 305 305 305 304 304 304 304 304 303 304 303 303 303 302 302 302 301 301 301 301 301 302 302 303 304 307 308 308 309 311 312 312 314 316 317 318 318 318 319 319 318 318 318 317 317 317 317 317 318 318 318
316 316 316 317 317 317 316 317 321 322 319 313 309 309 311 311 311 313 312 311 312 312 311 311 310 309 308 307 306 306 306 305 305 304 304 304 304 304 304 303 303 303 302 302 302 303 303 302 302 302 301 301 300 300 300 300 300 301 301 302 303 303 303 304 306 306 307 310 312 314 316 316 317 318 318 318 318 318 318 318 318 318 318 318 318 318
315 316 314 314 315 316 317 318 320 319 314 310 309 309 309 310 311 312 312 311 310 310 310 310 309 307 307 306 306 305 305 304 303 304 304 303 303 303 303 303 302 302 301 301 301 302 302 302 301 301 301 300 300 299 299 299 299 300 300 300 300 300 301 301 302 302 302 304 306 309 311 313 315 316 316 317 318 318 318 319 319 319 319 319 319 319
313 316 315 315 314 315 317 317 316 316 315 312 311 309 308 309 309 311 313 311 309 309 309 308 307 307 306 306 305 305 305 305 304 304 303 303 303 303 302 302 302 301 301 301 301 301 300 300 300 300 300 300 299 298 298 298 298 298 299 299 299 299 299 300 300 300 300 300 302 304 306 308 310 312 312 314 315 316 317 317 318 319 319 319 319 319
310 315 317 316 313 312 315 316 315 317 317 313 310 307 306 306 306 308 311 312 309 308 307 307 307 306 306 306 306 306 307 307 306 303 302 302 302 302 302 302 301 301 300 300 300 300 299 299 299 299 299 299 298 298 298 298 298 297 297 297 297 297 298 298 298 299 299 299 300 301 302 303 305 306 306 307 308 310 312 314 315 317 318 318 318 318
310 311 313 315 313 311 314 316 315 315 314 310 307 306 305 305 305 307 313 314 310 307 307 306 306 306 306 306 306 308 309 308 305 302 301 301 301 301 301 301 300 300 300 299 299 299 298 298 298 299 298 298 298 297 298 298 298 297 297 297 296 296 296 296 296 297 298 298 299 300 301 302 302 303 303 303 303 304 307 309 310 312 313 314 315 316
310 309 310 312 312 310 312 313 312 312 310 307 305 305 305 304 305 310 317 316 309 307 306 305 305 305 304 304 306 308 308 306 304 301 300 300 300 300 300 299 299 299 299 298 297 297 297 297 297 297 297 297 297 297 297 298 297 297 296 296 296 296 295 295 296 296 296 297 297 298 299 300 300 301 302 303 303 304 305 306 306 307 308 308 309 311
306 306 307 308 309 308 310 312 310 309 307 304 303 303 303 305 309 314 316 313 308 307 307 305 305 305 304 304 305 305 305 304 302 300 299 299 299 299 298 298 298 297 297 297 296 295 295 295 295 295 295 296 296 296 296 297 296 296 296 296 296 296 296 296 296 296 296 296 296 296 297 297 298 299 299 300 302 302 303 305 306 307 306 305 306 307
304 305 305 306 306 306 307 309 310 309 305 302 302 303 304 309 314 312 309 308 307 307 307 307 306 305 303 303 303 303 302 301 300 299 298 298 298 298 297 297 296 296 296 295 295 295 295 294 294 295 295 295 295 295 295 295 295 295 295 295 295 295 295 296 296 296 296 296 296 296 296 296 296 297 297 298 298 299 300 301 302 303 303 303 303 303
304 305 306 306 304 304 305 308 310 310 304 301 303 305 306 309 310 307 305 307 308 306 305 305 304 303 302 302 301 300 299 298 298 298 297 297 297 297 297 296 296 296 296 295 295 295 295 294 294 294 294 294 295 295 295 295 295 295 295 294 294 295 295 295 295 295 295 295 296 295 295 295 295 296 296 296 297 297 297 298 298 299 299 300 300 301
303 304 305 304 303 304 307 308 307 305 303 301 303 304 304 303 304 304 306 307 306 305 304 303 302 302 301 300 299 298 298 297 297 297 296 296 296 296 296 296 296 296 296 295 295 295 295 295 294 294 294 294 294 295 295 295 294 294 294 294 294 294 294 294 294 295 295 295 295 295 294 295 295 295 295 295 295 296 296 297 297 297 298 298 298 299
304 303 303 303 303 303 305 305 303 302 302 302 302 302 301 301 301 304 305 305 304 304 303 302 301 300 299 298 298 297 297 297 296 296 296 296 296 296 296 295 295 295 295 295 295 295 295 295 295 294 294 294 294 294 294 294 294 293 293 293 293 293 294 294 294 294 294 294 294 294 294 294 294 294 294 294 295 295 295 295 296 296 297 297 297 298
303 302 303 304 304 303 303 303 303 303 302 301 300 300 300 300 300 301 302 302 302 302 300 300 300 298 297 297 297 297 297 297 296 295 295 295 295 295 295 295 295 295 295 295 295 295 295 295 295 295 294 294 293 294 293 293 293 293 292 293 293 293 293 293 293 293 293 293 293 293 293 293 294 294 294 294 295 295 294 295 295 295 295 296 296 296
303 303 304 304 304 304 305 304 303 303 302 301 300 300 299 299 299 299 299 300 300 299 299 299 298 297 297 297 297 297 297 296 296 295 295 295 296 295 295 295 295 295 295 295 295 295 295 295 295 295 294 294 293 293 293 293 293 292 292 292 292 292 292 292 292 293 293 293 293 293 293 294 294 294 294 294 295 295 295 295 295 295 295 295 295 295
302 303 303 303 303 304 305 304 302 302 302 301 301 300 300 299 298 297 298 300 300 299 299 298 297 297 297 297 296 296 296 295 296 296 295 296 296 296 296 296 296 295 295 295 295 295 295 295 295 295 294 294 293 293 293 293 292 292 292 292 292 292 292 292 292 293 292 293 293 293 294 294 294 293 293 293 293 293 294 294 294 293 293 294 294 294
300 302 303 303 304 304 304 303 303 303 302 302 302 301 301 300 299 298 298 299 300 300 300 299 298 298 298 297 297 297 296 295 295 296 296 297 297 297 297 296 296 295 295 295 295 295 295 295 295 294 294 293 293 293 293 292 292 292 292 291 291 292 292 292 292 292 293 293 294 294 293 293 292 292 292 292 292 292 292 292 292 292 292 292 293 293
301 304 303 303 304 305 304 304 304 304 304 303 302 302 302 301 301 300 300 300 300 300 301 301 299 298 297 297 297 297 296 295 295 296 296 297 297 297 296 296 296 295 295 295 295 294 294 294 294 294 293 293 292 292 292 292 291 291 291 291 291 291 292 292 292 293 293 294 294 293 292 292 292 292 292 292 292 292 291 291 291 291 291 291 292 292
301 302 302 303 304 304 303 303 303 303 303 302 301 301 301 301 302 302 302 302 301 300 300 300 299 297 296 296 296 296 296 295 294 295 296 296 295 295 295 296 296 295 295 294 294 294 294 293 293 294 293 292 292 292 292 291 291 291 291 291 291 291 292 292 293 294 294 294 293 292 292 292 292 292 292 292 292 292 292 292 291 291 291 291 292 293
Wind_Speed
2 4 4 5 5 5 5 6 5 3 3 2 1 2 3 4 2 0 4 5 1 4 7 5 5 6 9 10 4 4 6 9 10 12 12 12 12 12 13 11 12 13 9 6 7 11 13 12 10 9 8 9 9 9 12 15 18 19 21 21 20 19 17 16 17 18 21 23 22 19 17 15 13 13 14 13 12 10 10 12 11 10 11 12 13 12
2 5 5 4 5 5 5 6 5 3 3 2 3 4 4 4 2 2 6 6 1 4 5 2 4 8 8 8 5 1 6 10 12 14 14 15 15 13 14 14 12 12 7 6 7 9 12 12 11 11 11 12 11 11 12 15 16 19 22 22 21 21 20 19 18 19 22 23 21 17 14 14 13 13 14 14 13 11 11 12 11 11 12 13 13 12
3 6 5 5 6 5 4 4 5 4 3 3 2 3 5 2 1 4 5 3 1 4 4 2 4 10 8 5 6 3 3 7 10 14 14 15 15 14 15 14 13 13 11 9 9 9 11 11 11 11 12 13 12 12 13 14 15 18 20 22 23 23 21 20 20 21 20 18 16 13 12 13 13 14 13 13 12 11 11 12 11 11 12 12 11 11
4 4 5 7 6 6 4 3 5 3 2 3 3 4 4 0 0 4 2 1 2 4 5 5 6 8 6 3 4 2 1 4 7 12 14 13 14 13 14 13 13 15 14 10 9 9 10 11 11 11 12 13 12 12 14 15 16 17 18 21 23 23 21 19 20 20 18 15 12 10 11 11 12 13 13 12 11 10 10 11 11 12 12 11 11 11
3 1 4 7 5 6 5 4 5 3 3 3 5 6 4 2 5 6 1 2 3 3 3 5 6 5 2 3 4 2 2 4 5 9 14 14 14 12 11 12 13 14 14 11 10 9 9 10 11 12 13 14 13 12 14 15 16 17 19 21 21 21 22 21 20 19 18 16 13 12 11 10 10 11 12 11 10 10 10 11 12 12 11 11 11 11
5 2 6 7 4 5 5 4 6 6 4 3 5 9 9 8 9 7 1 2 4 2 1 2 5 3 0 3 5 2 3 4 3 8 13 14 14 12 11 12 12 13 12 9 9 9 9 10 11 11 13 15 14 13 14 14 14 18 20 19 18 19 21 21 20 20 19 17 15 14 13 12 11 12 12 12 12 13 12 11 12 12 11 11 11 10
3 4 6 7 6 6 5 4 5 6 4 3 4 9 12 11 8 5 4 2 3 1 1 1 4 3 2 5 6 3 5 6 5 7 10 10 12 12 10 10 11 12 10 6 7 8 8 10 11 11 13 16 15 13 15 13 13 16 17 18 18 19 20 20 20 20 18 16 15 14 14 13 13 13 12 11 12 13 12 11 12 12 12 12 12 11
2 5 5 5 5 5 5 4 5 8 5 2 1 5 8 8 7 7 6 6 3 2 1 1 2 4 5 4 3 3 8 7 4 5 6 6 8 10 10 10 10 12 11 7 7 7 8 10 11 11 12 16 16 14 15 14 14 17 17 18 20 19 20 20 20 19 17 15 13 13 13 12 13 12 12 11 11 12 11 12 12 11 12 13 12 10
3 6 8 7 5 4 5 4 7 11 6 2 3 4 5 6 6 6 6 5 2 2 3 3 2 4 4 2 1 2 7 6 3 2 2 3 6 8 9 8 8 9 10 8 5 5 7 8 11 12 12 15 16 14 15 14 15 17 18 18 19 20 20 20 20 19 16 15 13 13 14 13 12 11 12 12 11 12 11 11 12 12 13 14 12 11
1 5 8 8 6 6 6 4 9 13 6 1 5 5 3 3 3 4 4 3 3 3 4 4 4 4 3 2 1 1 3 5 6 6 2 2 4 6 5 5 6 7 5 4 3 4 7 7 9 12 12 13 14 12 15 14 14 17 19 18 19 20 20 20 20 19 18 17 16 16 17 17 14 11 12 13 13 12 11 11 12 13 13 14 13 12
1 1 2 5 5 5 5 3 6 10 5 4 6 4 3 3 2 2 1 1 3 4 2 5 6 5 3 1 0 1 3 5 6 6 4 1 5 4 5 6 7 7 5 4 4 5 7 7 9 12 11 10 9 11 14 13 13 17 18 18 19 19 21 20 19 19 19 19 18 17 18 19 17 15 14 15 14 12 12 12 13 14 14 14 14 13
1 0 1 3 3 2 3 3 2 3 2 1 2 2 2 2 1 2 1 1 4 4 0 2 5 5 5 1 2 4 6 6 7 7 5 2 5 5 5 7 8 8 7 7 7 6 5 5 7 11 12 10 7 10 13 11 13 16 15 16 18 18 21 20 17 19 20 18 18 17 18 20 20 19 17 16 15 15 15 16 16 16 15 15 14 14
2 3 2 2 2 4 4 2 2 2 3 3 2 2 3 2 2 2 2 2 4 3 1 2 2 3 4 1 3 7 8 8 7 7 5 2 4 6 7 8 9 10 10 10 8 7 6 4 4 7 13 15 11 10 11 10 11 13 12 13 16 17 18 17 16 19 19 18 17 18 18 20 21 22 21 19 19 20 20 19 19 17 16 16 15 14
3 3 2 2 2 5 7 6 4 3 5 6 5 5 5 3 2 2 2 1 4 3 1 2 2 2 3 1 5 8 8 7 7 4 2 3 6 8 9 9 10 11 10 9 7 7 7 8 8 7 10 15 15 12 12 12 10 11 12 12 13 13 13 14 16 17 17 17 17 18 19 21 21 21 21 21 22 22 21 20 19 17 16 15 14 13
4 2 4 6 2 5 11 9 4 3 5 6 3 3 4 3 3 3 3 3 3 1 2 2 3 2 2 1 4 6 7 8 9 7 5 7 9 10 9 8 8 9 9 8 9 9 9 10 10 8 8 10 15 15 13 13 11 10 11 12 12 10 8 12 16 16 16 17 17 18 20 22 22 21 21 22 22 22 21 19 18 16 15 14 12 11
3 4 4 3 0 6 10 6 3 5 3 2 2 2 2 3 3 1 0 0 1 1 2 2 2 1 1 1 3 4 7 10 10 9 9 10 10 8 7 8 8 8 8 8 9 10 10 11 10 8 7 6 13 16 14 14 13 12 14 16 17 15 12 14 16 17 17 18 18 19 22 23 22 22 22 22 22 22 21 19 17 15 14 12 11 11
1 2 1 0 2 6 5 4 5 4 3 3 3 4 1 1 2 2 1 2 1 3 1 1 2 1 1 1 2 5 9 10 9 9 8 8 9 7 6 7 8 8 8 8 9 9 9 10 10 10 8 7 11 15 14 14 16 16 17 18 19 21 21 20 20 20 19 19 19 20 23 24 23 22 22 22 22 21 21 19 17 14 12 11 11 10
2 2 1 2 4 3 1 2 3 0 2 4 4 4 3 1 1 2 1 1 0 3 1 1 1 2 2 2 2 6 8 8 8 8 7 7 10 9 7 8 8 8 8 9 10 9 8 9 10 11 11 9 11 14 13 14 16 17 17 17 20 23 25 24 22 21 20 19 20 21 22 23 22 21 20 21 21 20 20 19 18 15 13 12 11 10
2 2 2 2 2 1 1 2 3 2 1 0 1 3 3 2 2 2 1 1 2 3 1 1 1 3 3 1 2 5 7 6 6 6 7 8 9 8 8 9 9 8 7 8 9 8 7 9 10 13 15 13 12 13 14 14 15 16 17 17 16 16 19 22 22 21 20 20 20 21 21 22 21 20 20 20 20 19 19 20 19 17 14 13 13 12
1 3 2 1 1 1 1 2 3 3 2 1 1 2 0 1 1 2 1 1 2 2 1 1 1 2 1 1 2 4 5 5 5 5 7 8 8 7 8 8 8 7 7 7 8 7 7 8 9 12 16 16 14 13 16 17 16 17 16 14 13 11 13 18 20 21 20 20 21 21 21 21 20 20 20 19 19 19 19 20 20 18 16 15 14 14
1 2 2 0 1 1 1 1 1 3 3 2 4 4 2 1 0 1 1 1 1 2 2 2 3 1 2 2 2 3 4 3 3 5 6 6 6 7 7 7 8 7 7 6 6 4 3 5 6 7 9 12 13 13 17 20 20 17 13 12 13 13 13 15 18 20 20 20 21 21 21 21 20 20 20 19 19 19 19 19 19 18 17 16 15 14
1 2 2 2 2 2 1 1 0 1 1 1 3 3 3 3 3 4 4 1 1 1 1 2 3 1 2 1 2 3 3 2 3 6 6 6 6 6 6 7 8 7 6 6 5 4 4 3 2 2 3 6 10 14 17 16 14 13 12 11 13 15 13 13 17 20 20 20 21 21 21 21 21 21 21 20 20 19 18 18 18 18 17 16 15 14
1 2 2 2 2 2 1 1 1 1 2 2 1 1 0 1 2 4 6 3 2 1 1 1 2 1 2 1 3 3 4 5 5 6 7 6 5 6 7 8 8 7 7 7 6 5 6 6 5 3 3 3 7 12 14 12 11 11 12 12 12 13 13 13 16 20 20 20 20 21 22 21 21 22 21 20 20 19 17 17 18 17 17 16 16 15
1 1 2 2 1 2 0 2 2 2 2 3 3 3 1 1 1 2 2 2 4 3 2 2 2 1 2 3 4 4 6 7 7 7 8 7 6 7 9 9 8 9 9 9 7 7 8 9 8 6 5 5 4 6 10 15 16 12 10 10 9 11 12 14 18 19 20 20 20 20 21 21 22 22 21 21 20 19 18 17 17 17 16 16 15 14
1 1 1 2 2 2 2 3 3 2 1 1 2 3 3 2 1 1 0 1 3 2 2 3 3 1 3 5 6 7 9 10 9 9 9 8 8 7 8 8 9 9 10 11 10 10 11 11 9 7 8 8 8 11 9 13 13 7 5 5 6 8 10 15 19 19 19 20 20 21 22 22 22 22 21 21 20 20 18 17 17 16 15 16 15 14
1 0 0 2 4 5 4 2 2 1 0 1 2 4 6 5 1 1 1 3 4 2 2 3 2 3 6 7 6 8 10 10 9 9 9 9 9 8 8 8 9 9 10 11 12 12 11 10 9 10 10 10 9 11 10 8 8 8 6 4 4 6 8 13 16 15 17 19 20 21 22 22 23 23 22 22 21 21 19 17 17 16 15 15 14 13
3 2 2 2 1 2 1 1 1 1 0 0 2 5 6 5 2 1 2 3 3 5 3 1 4 9 9 8 7 7 9 9 9 9 9 9 9 9 9 9 10 10 9 11 12 12 12 12 12 13 13 12 12 11 10 10 11 11 9 7 6 4 6 10 12 11 14 17 20 21 22 21 21 21 21 20 19 19 19 18 17 15 14 13 12 12
3 3 3 5 6 3 1 1 1 2 2 2 3 5 6 6 2 2 2 1 2 5 3 3 9 12 8 7 6 6 8 8 8 9 9 8 9 9 10 11 13 12 11 12 13 12 12 11 11 14 16 16 15 13 12 11 11 12 10 9 7 3 3 6 9 10 12 13 13 15 17 18 16 16 18 19 19 17 16 16 16 15 13 12 11 10
3 2 1 3 6 5 4 3 4 6 6 6 6 6 7 7 4 2 1 2 2 2 3 9 13 9 6 6 5 5 7 8 9 9 8 9 9 9 10 13 14 12 11 12 12 11 10 10 11 14 17 18 17 16 16 15 15 13 11 10 9 6 5 4 5 7 7 5 5 7 11 13 13 13 16 18 17 16 14 13 12 12 11 11 11 9
2 3 2 3 4 6 6 4 5 6 6 7 8 8 7 7 8 7 6 4 2 2 8 14 14 8 5 4 5 6 7 8 9 9 9 10 10 9 10 12 12 11 12 12 10 10 10 11 12 14 16 18 17 17 17 17 18 18 15 11 9 8 9 9 8 7 7 7 7 9 12 14 14 14 16 16 14 13 12 11 8 7 8 9 10 8
1 2 2 2 3 4 5 5 4 4 6 8 9 9 7 7 7 7 7 6 5 7 12 15 13 7 4 5 7 7 7 9 10 10 10 9 9 10 11 12 12 12 13 12 10 10 12 12 13 14 16 17 16 16 16 16 19 22 21 17 14 12 12 12 13 12 11 10 9 9 12 14 14 16 16 16 16 15 14 13 10 9 10 9 9 8
2 3 3 2 3 2 3 4 4 3 4 7 9 10 9 7 5 5 5 4 2 7 13 11 7 5 5 7 8 8 9 10 11 10 10 9 9 10 11 12 12 13 12 11 9 10 12 12 13 15 16 16 17 17 16 16 19 23 23 22 21 19 17 18 18 16 13 11 9 8 10 11 12 13 14 14 15 17 19 19 17 16 14 11 9 8
2 5 4 2 4 3 1 3 3 2 1 2 4 6 7 5 2 3 4 5 3 4 8 6 4 6 8 10 10 10 10 11 11 9 8 9 9 10 11 12 13 13 12 10 9 11 12 12 13 15 16 17 18 19 18 17 19 21 23 25 26 25 24 24 23 21 17 13 11 10 10 10 10 10 9 9 11 13 16 17 17 16 13 10 9 9
3 5 4 2 3 3 1 2 1 1 3 1 2 4 4 4 4 5 6 7 6 5 6 6 8 10 9 9 11 11 10 10 10 10 9 9 8 10 13 13 13 12 11 10 10 11 12 13 14 15 17 18 18 21 24 24 23 24 26 29 31 30 29 29 27 26 23 18 14 12 11 10 10 10 8 8 9 9 9 10 11 11 10 8 7 8
4 5 3 1 2 3 3 2 2 2 1 1 1 3 3 4 6 8 8 8 8 10 11 11 10 10 9 8 10 11 12 12 12 12 12 10 8 9 11 12 12 11 10 10 11 12 12 13 14 15 18 19 20 24 28 29 29 32 33 33 35 34 33 33 31 30 27 24 19 16 14 13 12 12 12 11 11 10 9 7 7 7 6 5 5 6
2 4 3 2 2 3 4 3 2 1 2 2 1 3 3 3 2 4 6 8 7 6 11 12 11 11 11 10 9 9 11 13 13 12 12 11 10 10 10 11 10 9 10 12 13 13 13 13 15 17 18 20 23 27 29 30 32 36 37 36 36 35 35 36 35 32 30 29 26 22 20 17 15 15 14 13 13 12 10 8 6 6 4 3 3 3
1 2 4 2 1 2 4 3 3 3 2 2 1 3 3 3 4 2 2 4 5 3 7 11 12 12 11 10 11 9 8 10 11 10 10 10 10 10 11 12 10 10 13 15 15 15 15 16 18 21 22 22 25 28 31 32 34 37 38 37 35 34 35 36 34 32 31 31 29 28 26 23 21 20 18 15 15 14 11 8 6 6 5 5 5 4
3 2 2 2 0 1 4 4 3 3 2 1 2 4 4 4 5 4 1 2 3 4 6 9 11 11 10 10 10 7 4 6 8 6 7 8 8 9 11 12 12 13 15 16 15 15 17 20 22 24 25 26 26 28 31 33 34 36 37 36 35 34 34 32 30 28 28 28 28 28 28 27 27 26 25 23 21 19 17 13 10 8 7 6 6 7
5 2 1 3 2 2 3 4 2 1 1 1 4 6 6 5 5 3 2 1 3 6 8 9 9 8 7 7 4 2 2 5 6 3 4 6 7 8 9 10 12 13 14 15 15 14 15 19 22 23 25 25 23 24 28 31 33 34 34 32 33 33 32 29 27 26 25 24 25 25 25 25 25 25 26 26 25 24 22 19 17 15 12 12 11 10
5 3 2 3 2 2 2 3 2 2 2 3 6 8 7 5 3 3 2 2 5 8 8 9 9 7 5 4 3 3 3 4 5 4 3 4 6 7 8 8 10 12 12 12 14 16 17 19 21 23 23 22 20 20 24 29 32 32 30 29 30 30 28 26 25 24 24 24 24 23 23 22 22 21 21 21 21 20 20 19 18 16 15 16 15 13
3 3 2 2 2 3 3 3 3 2 2 4 8 10 7 4 2 2 0 2 7 10 9 9 10 8 4 3 3 4 5 6 7 6 4 4 6 8 10 11 12 12 12 12 15 18 19 20 22 22 21 20 20 21 23 27 30 29 28 29 29 26 23 22 21 21 22 23 23 23 22 22 21 20 19 18 16 16 15 14 14 12 12 14 14 13
2 3 3 2 2 2 2 3 3 3 2 7 11 9 5 2 1 1 2 2 9 12 11 9 8 6 5 5 7 8 8 9 9 8 6 6 7 8 10 12 13 13 13 15 19 23 22 21 22 22 20 20 22 23 24 26 28 26 24 25 25 21 19 19 18 17 18 20 20 20 20 19 18 18 18 17 15 15 15 13 12 10 10 10 10 10
2 1 2 2 2 1 2 3 2 2 2 10 11 6 2 3 2 2 0 6 10 10 9 7 5 6 8 9 10 11 11 10 9 8 8 8 8 9 10 11 12 12 12 14 18 23 25 24 22 21 20 20 22 23 23 25 24 22 21 20 19 16 16 16 15 15 16 17 17 17 17 16 15 15 15 15 15 15 15 14 12 12 11 11 10 10
3 1 2 1 2 1 2 3 2 1 4 9 7 3 3 4 3 2 2 7 7 5 5 6 6 7 10 11 11 11 11 11 9 8 8 7 7 9 10 10 11 11 11 12 15 19 22 21 19 19 20 20 21 21 21 22 22 20 18 16 14 13 13 13 13 14 15 15 15 15 14 14 13 13 13 14 14 14 14 14 13 13 12 12 12 12
2 2 3 3 3 4 4 3 2 3 4 6 6 5 5 5 4 4 5 6 5 4 4 5 7 8 9 11 12 11 10 9 9 8 7 6 7 8 9 10 10 11 12 13 15 18 18 17 16 17 18 18 19 19 19 19 20 19 17 14 12 11 11 11 12 13 13 14 14 14 13 13 13 13 13 13 13 13 14 13 13 13 13 13 13 13
2 1 2 3 4 6 7 6 5 5 6 7 7 7 8 8 7 7 8 7 5 5 5 6 8 8 8 8 10 9 9 9 9 8 6 6 6 7 9 9 10 12 13 13 15 17 17 16 16 16 16 16 17 18 17 17 17 17 15 13 11 11 10 11 12 14 14 15 14 14 14 14 14 15 14 14 14 14 14 14 13 13 14 14 14 14
3 1 2 3 3 2 5 7 6 7 7 7 7 9 11 11 9 9 9 7 6 7 8 8 9 10 9 8 9 8 8 9 9 7 6 5 6 7 8 8 9 10 11 12 13 14 14 13 13 13 13 14 14 14 15 15 15 14 13 11 11 10 10 11 13 14 15 14 14 14 15 15 16 16 16 16 16 15 14 14 14 14 14 15 15 14
2 2 3 5 5 4 5 7 8 10 10 8 7 9 10 11 11 11 10 8 8 9 9 9 10 9 8 7 8 8 7 7 7 7 6 5 6 7 7 8 8 9 11 11 11 11 11 11 11 11 11 11 11 12 12 12 12 11 11 11 10 10 10 12 13 13 13 13 12 13 15 15 16 17 16 16 17 15 14 13 14 14 14 13 13 12
2 1 3 6 8 7 7 7 8 9 10 9 9 10 9 10 12 13 12 11 11 11 10 9 10 9 8 7 7 7 6 5 5 6 6 5 6 7 7 8 8 9 10 10 9 9 9 9 9 9 9 9 9 10 10 11 11 10 10 10 10 9 10 12 13 12 13 13 13 14 15 16 17 18 17 17 17 16 16 15 14 14 12 12 12 12
1 4 5 5 6 6 4 4 3 5 7 7 7 9 10 10 12 12 11 11 10 9 8 7 7 7 8 8 7 7 6 4 4 5 6 5 6 7 8 9 9 9 9 9 8 9 9 9 9 8 8 8 8 8 9 9 9 9 9 9 10 9 9 10 10 11 12 13 14 15 16 16 18 19 20 19 17 16 15 16 17 16 14 13 14 13
2 2 1 3 5 5 4 4 2 3 6 5 4 4 4 5 8 10 8 7 7 7 8 8 7 6 5 4 4 6 7 6 5 6 6 5 6 8 9 9 9 8 8 8 8 8 8 8 8 7 7 7 7 7 8 8 8 9 9 9 10 9 9 9 9 10 11 12 14 16 17 17 18 19 20 20 20 17 14 13 14 16 15 14 13 13
Wind_Direction
172 172 191 199 175 162 182 197 198 169 132 135 171 241 249 259 272 195 266 268 218 291 286 280 276 272 276 281 322 76 163 193 201 206 207 206 208 209 211 208 207 213 201 167 151 143 152 161 161 160 160 163 165 167 172 175 176 177 185 193 189 187 189 180 171 170 171 169 169 170 169 168 167 174 178 177 177 176 174 177 178 178 181 186 189 185
185 204 202 179 157 156 179 178 158 143 154 200 227 259 265 248 264 247 262 282 224 241 262 255 275 271 270 284 311 60 180 201 203 207 207 207 211 210 213 213 208 213 200 157 155 147 150 156 158 159 158 165 167 169 179 180 176 175 180 187 188 186 186 181 173 171 171 171 171 169 164 162 163 169 174 173 174 174 175 178 179 180 184 188 189 187
193 216 200 166 156 121 98 140 151 155 176 205 220 261 270 251 288 252 252 299 212 215 257 270 279 279 287 300 297 292 215 219 214 212 213 209 209 210 211 209 203 209 206 180 169 159 156 156 157 158 158 166 166 168 180 180 174 173 173 174 176 180 181 179 177 172 168 169 171 165 160 160 162 167 171 170 171 174 176 178 181 182 184 185 185 186
191 229 193 162 155 128 104 137 147 144 182 197 210 242 259 214 9 254 234 53 197 226 272 285 287 283 291 307 277 272 268 257 237 227 228 221 216 212 209 206 201 207 207 189 175 167 161 160 160 159 160 163 162 168 176 174 172 174 173 170 171 177 179 176 177 174 168 165 159 153 154 153 158 165 166 166 169 173 177 179 183 184 183 182 182 182
198 245 135 140 160 158 139 142 154 182 225 210 215 232 248 217 219 238 270 350 270 246 245 257 272 269 276 296 254 230 282 267 243 232 231 228 227 223 213 210 206 208 208 195 182 171 163 164 161 157 159 160 161 168 171 168 170 172 173 174 172 174 177 176 175 176 173 169 160 150 146 142 147 155 160 167 173 176 179 181 183 184 181 178 178 180
212 157 131 135 165 177 159 169 185 200 229 238 217 219 227 225 221 220 188 340 284 247 166 237 262 245 128 280 254 239 280 269 248 233 230 225 224 224 219 213 206 207 209 201 188 174 164 166 161 156 160 161 160 167 172 167 166 169 174 182 180 172 173 175 176 180 179 171 164 156 151 151 152 157 169 177 178 178 179 178 178 175 175 176 176 178
205 162 161 155 161 173 180 205 198 188 214 268 222 207 215 221 220 199 159 194 259 268 82 314 280 271 285 262 246 260 282 269 255 240 235 229 222 221 221 214 206 203 198 191 187 177 163 163 163 161 164 165 161 167 175 171 166 168 172 185 187 177 172 173 178 183 179 170 167 166 163 163 164 166 174 178 176 176 174 171 169 167 169 173 175 175
149 153 168 162 154 163 193 225 193 175 189 254 191 182 193 203 207 188 178 204 248 315 281 195 254 264 275 260 229 291 289 274 257 245 241 235 226 223 221 216 206 199 197 194 186 177 166 163 165 164 166 165 160 166 177 171 167 170 173 182 185 179 174 175 181 184 178 172 171 171 169 168 171 170 168 167 168 167 166 165 163 163 165 167 170 171
134 173 179 164 158 181 208 210 167 171 201 248 162 162 173 187 194 176 183 209 216 291 257 169 173 244 258 244 174 311 290 292 351 356 256 221 228 227 219 208 193 190 202 204 185 171 165 160 164 163 167 166 156 165 180 171 166 170 177 184 182 178 177 178 184 184 178 177 175 175 177 173 167 165 161 158 159 160 160 160 159 159 161 163 164 164
115 204 188 164 171 203 209 182 160 176 204 186 135 127 116 128 131 154 191 197 163 244 251 159 176 247 270 255 244 336 307 319 352 6 22 156 204 227 202 170 162 164 180 185 159 158 155 155 162 158 161 162 153 167 181 171 165 170 178 185 182 180 181 182 184 182 180 183 182 182 185 180 166 157 156 153 154 157 156 155 155 157 159 160 161 162
33 231 167 175 192 205 199 163 166 181 174 108 133 124 94 106 97 125 161 159 194 241 244 163 192 237 273 280 30 350 346 331 322 332 351 140 178 187 159 145 141 134 132 136 133 136 137 140 146 147 153 154 153 175 180 172 169 172 178 183 182 183 184 185 184 182 184 185 185 185 186 183 172 159 155 154 155 157 155 154 156 159 161 162 164 163
326 219 171 214 195 152 166 154 155 191 179 121 144 142 131 138 127 137 124 159 226 248 130 174 208 221 241 236 57 342 343 339 310 300 314 280 182 165 145 144 137 126 122 116 108 101 97 98 116 139 155 154 168 188 180 173 170 169 176 180 180 184 185 185 184 185 187 186 184 184 183 183 175 167 162 158 159 160 159 161 162 164 166 167 167 164
263 231 242 278 211 178 190 182 129 149 197 200 184 187 194 174 151 197 204 192 238 253 129 172 204 215 245 289 18 346 348 349 328 300 284 254 178 159 134 131 129 125 124 117 112 116 120 126 127 148 160 159 174 195 185 179 170 167 176 179 178 184 185 185 185 187 189 187 185 183 182 180 175 171 170 165 163 165 166 168 169 169 172 170 167 164
231 245 237 249 242 192 191 211 204 168 185 187 181 189 188 164 156 199 197 213 260 263 90 134 171 226 254 23 15 353 358 7 6 347 238 162 144 142 126 120 125 131 135 131 136 140 139 154 170 187 182 165 166 186 195 191 180 175 183 183 177 180 184 182 183 188 191 190 186 183 182 179 173 173 174 170 167 168 170 173 174 174 175 173 169 167
216 257 199 189 200 174 187 212 218 137 161 178 171 186 193 187 190 210 209 223 252 238 84 128 174 223 231 76 17 360 18 31 38 57 107 120 120 128 126 121 124 133 141 142 146 141 134 150 168 194 210 176 162 176 194 193 191 187 177 177 177 175 184 185 183 189 193 192 187 183 183 178 175 176 175 173 172 171 174 178 179 179 177 177 175 173
215 268 236 205 104 173 186 196 140 120 150 165 145 183 227 220 179 129 272 211 270 226 116 170 217 286 257 51 17 20 40 40 39 56 90 112 122 130 131 125 122 128 137 142 144 136 132 146 165 187 206 192 168 172 184 188 191 185 171 174 175 174 185 194 193 192 193 193 187 183 185 181 178 179 178 177 178 178 180 182 183 181 179 178 177 179
187 269 268 330 219 197 193 169 158 186 178 136 179 195 206 278 137 120 107 66 351 248 191 168 250 298 226 201 54 49 46 40 33 43 71 108 122 122 117 121 118 117 127 136 142 139 134 146 172 185 184 187 173 169 176 185 185 180 177 174 168 172 185 194 198 196 191 193 189 185 188 186 184 184 183 183 183 185 187 187 186 183 180 179 179 183
208 260 280 205 202 207 271 141 134 216 141 141 195 182 127 66 87 114 194 104 167 236 217 117 262 262 221 192 78 52 40 28 28 45 65 93 103 103 99 107 105 99 111 129 137 141 144 147 163 175 176 179 173 168 171 174 175 180 188 184 173 178 188 190 193 195 192 193 192 189 191 191 190 190 190 188 186 187 189 189 187 184 182 181 180 182
205 256 280 219 197 61 31 164 126 90 119 161 200 142 138 207 184 152 202 186 199 225 213 147 241 255 234 171 62 50 34 7 11 54 86 94 94 92 86 91 97 94 101 123 135 146 164 159 153 164 174 175 172 177 175 164 167 183 195 195 182 180 187 186 187 193 195 195 195 194 193 193 193 193 192 189 186 185 184 185 185 183 182 178 176 178
153 247 253 194 216 28 68 204 182 161 147 75 139 148 60 281 209 176 181 206 221 215 192 191 208 221 206 49 27 32 30 357 353 54 94 107 106 100 89 88 95 98 98 121 144 157 175 172 160 165 175 172 165 171 170 164 177 193 197 195 187 181 188 189 189 193 195 196 197 197 195 194 195 194 191 187 186 183 182 183 183 182 180 175 172 176
109 223 237 236 277 252 193 220 218 182 170 165 179 183 172 123 79 182 130 36 264 202 165 208 217 146 70 29 358 20 34 16 29 79 90 89 93 101 110 114 113 112 109 114 133 142 150 167 164 160 172 172 162 154 157 170 189 197 189 188 193 192 191 191 191 193 195 195 198 199 198 197 197 194 191 188 188 186 184 184 183 181 179 175 171 173
159 181 207 244 272 249 187 66 65 210 204 184 201 207 188 163 160 194 196 133 318 230 161 209 218 108 64 11 14 43 68 80 94 105 90 62 64 85 105 114 110 108 104 92 85 76 71 82 97 93 123 159 168 161 155 166 190 193 177 181 195 196 193 191 191 193 195 195 196 197 198 199 197 194 192 191 192 191 188 186 184 182 180 177 174 172
144 134 175 212 262 272 296 57 66 111 105 114 123 352 86 178 186 214 216 180 150 173 101 204 234 99 78 90 81 89 112 106 93 96 91 75 74 83 82 81 83 80 75 70 68 70 70 65 62 77 88 115 172 170 157 165 200 214 197 191 198 196 192 195 194 193 195 195 195 195 196 197 196 195 194 194 195 194 192 189 186 184 182 180 178 175
139 133 170 192 259 301 9 95 91 101 121 115 65 45 18 279 281 253 250 173 160 164 144 186 209 162 102 103 109 108 95 83 70 69 78 75 64 64 65 61 62 63 61 59 55 50 54 56 59 76 86 79 94 112 139 176 199 215 209 196 194 189 189 197 200 196 195 195 195 195 195 196 196 195 194 196 197 197 196 193 188 185 185 184 181 177
221 171 158 163 153 153 155 151 151 147 115 75 52 30 360 9 89 208 282 142 184 181 167 206 206 127 115 123 115 99 83 70 60 59 66 68 62 58 61 59 58 61 62 60 56 50 49 48 46 56 70 68 65 75 114 171 185 187 198 191 176 177 183 194 200 199 196 195 195 196 196 196 195 195 194 195 196 198 198 195 191 187 186 186 184 181
138 73 164 181 191 191 174 170 188 178 99 62 43 17 17 26 8 234 152 179 208 179 158 211 179 121 131 125 101 89 88 78 66 65 66 68 70 68 68 68 65 63 63 62 59 55 52 49 42 40 52 63 68 75 91 116 122 120 136 147 158 184 190 193 197 197 194 194 194 196 196 196 195 193 192 192 194 197 198 197 194 189 186 187 186 186
105 71 36 79 149 217 160 85 335 343 137 172 8 9 12 7 329 240 167 198 191 155 168 262 127 139 141 122 98 85 86 82 72 70 71 72 73 73 74 75 73 68 64 63 62 58 52 48 44 37 42 61 69 72 81 90 95 102 113 125 146 185 202 200 199 196 198 199 196 195 196 196 191 183 181 185 191 196 196 194 194 189 187 189 190 191
101 93 36 59 66 48 33 27 2 46 81 74 28 13 8 5 354 190 195 271 145 155 185 169 141 142 131 111 110 101 90 89 81 74 76 77 76 79 81 78 74 68 64 64 61 57 52 48 44 38 40 53 62 65 72 78 83 90 97 103 112 126 171 194 196 196 202 202 193 190 194 194 183 173 179 188 192 196 194 193 194 191 188 191 193 194
109 107 27 82 79 59 42 66 98 97 88 71 52 39 25 24 45 91 38 337 295 239 173 149 143 131 105 100 101 94 96 97 91 85 85 83 79 80 79 77 73 66 63 65 63 58 55 51 50 44 43 47 49 52 56 55 58 70 81 85 88 94 104 124 166 183 184 169 149 159 177 181 170 170 187 191 187 188 188 185 188 191 192 195 195 193
110 94 111 132 88 48 29 49 102 115 100 73 52 44 45 53 68 73 56 32 30 98 125 127 119 92 77 100 88 83 99 103 97 89 81 77 78 77 74 73 74 71 67 65 61 60 59 56 51 45 45 45 40 41 49 49 51 60 70 78 81 80 82 89 101 117 120 113 115 135 156 164 161 168 186 189 184 186 182 167 166 192 208 206 201 199
125 121 147 141 97 47 16 31 74 106 104 84 59 39 35 52 67 64 46 32 54 101 115 114 105 88 80 102 99 97 100 95 89 82 73 69 70 74 73 71 72 73 71 64 55 55 59 57 50 44 46 44 38 40 47 49 55 63 68 73 77 79 82 85 86 92 100 103 103 119 139 147 149 155 169 181 188 190 180 165 174 215 234 227 214 210
71 133 164 147 125 111 6 18 40 57 101 90 59 25 10 18 46 54 39 11 27 125 126 118 113 120 126 117 105 94 88 84 78 73 73 70 64 65 69 68 65 64 64 61 56 58 60 57 49 46 47 45 42 43 45 51 60 64 66 71 76 81 85 83 81 83 89 97 101 110 126 133 136 142 153 167 178 181 178 177 190 216 237 245 239 231
113 144 157 148 143 141 17 358 6 348 190 113 41 0 343 343 8 59 45 14 7 128 137 130 122 132 136 128 111 94 82 77 71 67 69 71 69 68 68 67 64 60 55 52 55 62 64 60 55 52 52 52 51 50 49 55 63 64 67 73 77 79 79 78 78 79 82 89 97 101 114 122 126 136 150 161 169 177 186 193 202 219 237 252 255 245
140 136 133 134 153 148 87 21 18 230 201 150 3 335 334 2 49 78 58 30 43 90 104 105 118 127 131 126 118 109 95 79 72 66 61 62 69 73 71 68 65 61 54 49 51 56 59 62 62 59 58 58 57 59 62 64 68 72 75 77 78 78 76 74 74 74 75 81 88 92 99 105 111 119 128 139 151 165 185 202 214 225 236 245 244 235
144 122 107 93 112 126 128 141 178 206 181 109 19 352 2 22 55 74 62 41 62 102 110 109 117 120 114 110 111 110 103 91 78 66 59 55 57 67 71 68 62 57 55 52 51 52 54 59 62 61 61 62 62 67 70 69 70 75 77 76 76 76 74 73 72 70 69 73 77 84 91 95 103 108 108 116 128 138 150 168 191 208 217 219 217 217
154 122 106 74 68 128 150 160 162 139 105 126 108 14 354 334 10 64 63 37 37 98 120 118 115 113 113 114 109 107 107 98 78 62 57 57 54 60 70 71 65 58 52 47 44 47 52 54 58 62 64 65 68 72 73 72 72 74 75 74 73 72 71 72 70 67 66 68 70 74 80 85 94 99 98 103 110 114 118 124 132 142 147 150 160 168
292 166 122 93 31 141 130 106 100 128 136 128 82 22 3 336 324 326 68 45 28 74 122 124 123 121 123 122 119 124 123 100 76 55 47 53 57 62 68 72 73 71 66 58 48 46 54 59 63 68 70 69 71 73 75 75 75 74 74 72 70 69 69 69 68 65 65 66 68 71 74 77 82 86 88 90 93 95 98 99 102 110 113 110 108 101
337 272 149 126 202 172 130 119 129 164 155 90 19 356 351 328 303 283 234 67 62 102 125 129 127 128 132 132 133 151 147 90 78 53 30 43 60 67 68 69 71 74 75 70 59 50 56 64 68 71 73 72 71 74 77 78 77 75 73 71 69 68 67 65 65 65 66 67 69 72 74 75 77 79 80 78 78 79 82 81 77 80 90 94 89 80
4 338 90 112 133 156 143 132 134 156 123 42 336 328 330 325 302 263 226 71 113 133 129 122 119 119 123 122 121 148 121 97 99 81 32 44 61 69 73 74 72 71 72 75 76 70 66 69 72 73 74 72 70 73 78 80 78 76 73 71 70 69 66 64 65 66 67 69 70 72 73 73 74 75 76 76 75 74 75 75 73 73 78 84 85 80
358 355 58 94 118 119 106 104 98 83 75 16 330 318 316 315 290 222 199 134 140 143 131 119 117 113 105 96 62 42 71 105 125 125 88 73 76 73 76 79 78 78 77 78 85 85 78 75 74 72 71 71 72 75 78 79 78 76 74 73 72 69 67 67 68 69 68 69 69 69 69 69 69 69 70 73 76 76 77 78 75 71 69 72 77 80
346 360 46 75 87 73 78 97 93 72 55 345 323 316 308 292 231 193 295 110 138 141 134 126 126 126 124 116 89 68 72 95 117 130 130 107 92 81 79 80 80 83 84 86 90 88 80 77 77 76 74 75 78 80 79 79 78 77 75 74 73 71 71 70 70 69 69 68 67 67 67 67 68 69 68 70 73 75 77 78 77 73 67 65 68 72
358 8 22 27 40 36 63 98 104 111 65 339 322 312 304 284 205 339 336 155 147 142 139 132 126 127 123 107 105 109 108 110 121 131 127 110 98 92 89 88 87 86 88 91 93 92 87 83 81 82 81 81 83 82 80 79 79 77 75 75 75 75 75 72 69 69 69 69 68 67 66 66 67 69 71 72 73 74 74 75 79 81 76 71 70 70
4 9 47 30 357 2 63 79 103 130 21 344 332 321 341 1 342 324 5 139 137 131 129 120 110 119 119 107 106 111 113 114 117 117 111 105 102 99 96 96 97 97 94 92 92 94 93 88 83 82 83 85 85 83 80 79 79 77 74 73 75 77 74 70 69 69 68 68 67 66 64 63 63 66 69 70 73 75 75 75 76 75 73 72 70 65
2 341 106 55 320 351 69 73 59 27 353 353 358 22 17 354 320 294 115 118 112 101 107 107 103 114 117 114 113 113 113 114 110 106 105 103 101 100 98 99 99 98 97 95 96 97 95 91 87 84 83 84 84 81 79 80 82 80 76 73 73 73 73 73 73 72 70 69 68 66 64 62 61 62 64 66 70 72 72 71 71 68 66 64 61 56
28 47 92 76 48 63 76 80 70 52 29 28 43 48 28 19 20 34 70 92 86 70 86 100 100 103 107 112 115 114 114 113 106 102 104 98 93 93 92 92 96 98 99 100 100 98 95 92 91 87 82 79 78 75 74 76 78 79 77 74 72 71 72 75 77 77 76 74 71 69 66 63 61 59 60 61 64 65 65 65 65 63 61 59 57 55
70 81 86 92 105 92 73 62 64 67 59 50 49 48 43 41 40 47 61 71 70 70 81 91 98 98 95 101 107 108 109 108 101 96 94 89 88 91 91 91 94 97 99 99 97 95 92 90 88 84 79 75 72 70 69 68 71 74 72 70 70 72 75 77 79 81 80 76 72 69 67 67 65 63 63 64 63 62 60 60 59 57 56 53 51 49
68 72 81 94 128 122 64 53 58 69 70 61 57 59 57 54 52 56 62 64 66 73 75 80 91 96 91 90 98 103 105 106 104 100 96 94 97 99 99 100 99 99 100 99 96 92 88 84 83 80 78 75 69 67 67 64 65 69 69 67 69 71 75 79 81 80 78 73 70 68 68 69 69 66 66 68 69 66 63 60 57 54 51 48 43 40
47 41 62 70 77 82 76 76 77 78 78 76 72 68 65 65 69 71 74 75 72 70 69 72 83 91 92 91 97 101 101 103 110 113 111 109 111 112 111 109 107 104 103 101 96 90 85 83 84 81 78 74 67 63 62 59 60 65 67 67 70 74 79 82 81 77 73 71 70 69 69 68 66 65 67 70 71 71 69 66 60 55 51 48 45 41
309 46 84 89 89 87 89 99 98 87 81 84 88 88 86 84 81 79 79 79 76 72 68 67 74 88 103 108 108 107 105 104 112 117 120 121 119 120 119 115 113 113 110 107 103 97 93 94 93 88 82 76 67 59 56 54 55 62 66 67 70 76 80 81 79 74 70 70 69 68 65 61 60 62 65 68 70 72 73 70 63 58 58 59 57 52
39 97 102 107 102 97 104 120 115 92 91 98 104 105 106 106 102 99 96 96 97 100 100 92 85 92 109 123 131 130 123 117 114 115 115 115 117 121 123 122 120 120 119 117 112 107 104 103 101 99 93 82 67 58 56 53 53 61 70 72 74 77 79 79 77 73 71 71 67 64 61 58 57 59 60 61 64 68 71 67 60 59 68 72 63 54
53 93 102 98 92 94 112 119 104 96 107 119 121 109 109 121 121 118 121 126 128 132 135 133 127 120 112 116 134 137 131 129 132 128 118 114 126 134 135 134 131 129 129 126 119 115 112 107 104 101 93 82 70 62 58 57 59 67 75 76 75 75 76 76 75 74 74 72 67 64 63 61 58 57 55 54 56 58 61 61 57 58 67 74 66 55